IRIDIUM 76 [B] (25432 NORAD) Tracking and Keplerian Element Data

This shows tracking and keplerian element data for the satellite.

Feedback or suggestion? Click here.




ElementValue
Catalog25432
NameIRIDIUM 76 [B]
Epoch Orbit4235
Epoch Day198.80808215
Epoch Year2018
RAAN90.1987
Inclination86.4255
Eccentricity0.000218
Argument of Perigee96.0062
Mean Anonmoly264.1385
Mean Motion14.38612632
Decay Rate1.49E-06
L11 25432U 98048B 18198.80808215 .00000149 00000-0 42318-4 0 9990
L22 25432 86.4255 90.1987 0002180 96.0062 264.1385 14.38612632 42355

Live tracking and technical data element details for IRIDIUM 76 [B] (NORAD 25432). IRIDIUM 76 [B] can be tracked NOW for your location showing map with azimuth and elevation plus other details from your city location.

Track the satellite on the map from your city or location and see movement details for azimuth, elevation, latitude, longitude, range, height, and movement on the map or in text.







IsCatalogInMostPopularTable: catalog: 25432, numindb: 31
Update: records affected: 1



GetName: 25432 IRIDIUM 76 [B]

Hit Count: updated at: Fri, 20 Jul 2018 07:03:19 GMT